Regional Weather Roundup
Issued by NWS San Diego, CA

Home | Current Version | Previous Version | Text Only | Print | Product List | Glossary On
Versions: 1 2 3 4 5 6 7 8 9 10 11 12 13 14 15 16 17 18 19 20 21 22 23 24 25 26 27 28 29 30 31 32 33 34 35 36 37 38 39 40 41 42 43 44 45 46 47 48 49 50
000
ASUS46 KSGX 170103
RWRSGX

SAN DIEGO HOURLY WEATHER ROUNDUP
NATIONAL WEATHER SERVICE SAN DIEGO CA
600 PM PDT WED APR 16 2014

NOTE: "FAIR" INDICATES FEW OR NO CLOUDS BELOW 12,000 FEET WITH NO
SIGNIFICANT WEATHER AND/OR OBSTRUCTIONS TO VISIBILITY.

CAZ042-043-060-061-PZZ750-775-170200-

GREATER SAN DIEGO AREA

CITY           SKY/WX    TMP DP  RH WIND       PRES   REMARKS
LINDBERGH FLD  MOSUNNY   63  52  67 SW8       29.84S
CHULA VISTA      N/A     66  56  70 W5        29.76S
IMPERIAL BEACH MOSUNNY   62  53  72 SW8       29.84S
BROWN FIELD    SUNNY     63  52  67 W12       29.82R
MIRAMAR MCAS   SUNNY     64  51  62 SW7       29.82R
MONTGOMERY FLD SUNNY     63  52  67 SW7       29.82S

$$

NORTH SAN DIEGO COUNTY

CITY           SKY/WX    TMP DP  RH WIND       PRES   REMARKS
CAMP PENDLETON SUNNY     64  52  64 SW8       29.81S
OCEANSIDE AP   SUNNY     62  53  72 SW9       29.80S
CARLSBAD       MOSUNNY   61  52  72 SW8       29.81R
DEL MAR          N/A     60  55  82 W3        29.83S
SAN MARCOS       N/A     65  55  69 W8        29.80S
POWAY            N/A     71  55  55 W8        29.82S
R. PENASQUITOS   N/A     67  53  61 W3        29.82S

$$

EAST SAN DIEGO COUNTY

CITY           SKY/WX    TMP DP  RH WIND       PRES   REMARKS
RAMONA         SUNNY     68  50  52 W10       29.81S
SANTEE LAKES     N/A     67  54  63 SW7       29.82S
GILLESPIE FLD  SUNNY     66  50  55 SW9       29.82F
LA MESA          N/A     63  55  75 S3        29.77R
DESCANSO N       N/A     67  47  48 W7        29.68S
MT. LAGUNA OBS   N/A     66  38  36 NW3       29.54S
CAMPO            N/A     71  44  37 SW16      29.78F

$$

ORANGE COUNTY AND THE LOS ANGELES BASIN

CITY           SKY/WX    TMP DP  RH WIND       PRES   REMARKS
JOHN WAYNE AP  SUNNY     66  52  60 SW12      29.80S
LAGUNA BEACH     N/A     67  56  67 S3        29.78F
LAKE FOREST FR   N/A     71  50  47 CALM      29.69S
SANTA ANA        N/A     70  56  60 S1        29.75S
HUNTINGTON BCH   N/A     65  57  75 S1        29.81F
LOS ALAMITOS   SUNNY     64  54  70 S10       29.80S
FULLERTON      SUNNY     67  53  61 SW7       29.79R
LONG BEACH     SUNNY     64  52  64 S7        29.79S
L.A. AP        MOSUNNY   62  52  69 SW10      29.80F
L.A. DOWNTOWN  SUNNY     66  53  63 VRB6      29.79S

$$

THE INLAND EMPIRE

CITY           SKY/WX    TMP DP  RH WIND       PRES   REMARKS
CORONA         SUNNY     72  52  49 W13G21    29.77S
CHINO          SUNNY     71  51  49 W14       29.79R
ONTARIO        SUNNY     73  50  44 SW12      29.78R
SAN BERNARDINO SUNNY     77  45  31 W13       29.77R
RIVERSIDE AP   SUNNY     73  50  44 W12       29.77S
MARCH ARB      SUNNY     75  49  39 NW12      29.79R
HORSETHIEF CYN   N/A     75  48  37 NW7       29.77S
HEMET EAST       N/A     76  41  28 W1        29.76S

$$

SAN BERNARDINO AND RIVERSIDE COUNTY MOUNTAINS

CITY           SKY/WX    TMP DP  RH WIND       PRES   REMARKS
BIG BEAR AP    SUNNY     63  23  22 W8        30.00S
BIG BEAR SHEA    N/A     64  14  14 N7        29.85R
ANGELUS OAKS     N/A     65  39  39 CALM      29.71R

$$

SOUTHERN DESERT INCLUDING THE COACHELLA VALLEY

CITY           SKY/WX    TMP DP  RH WIND       PRES   REMARKS
PALM SPRINGS   SUNNY     92  37  14 NW12      29.64F
THOUSAND PALMS   N/A     92  36  14 N16       29.60F
THERMAL        SUNNY     93  24   8 S7        29.59F
BLYTHE         SUNNY     94  25   8 S9        29.62F
IMPERIAL AP    SUNNY     93  33  12 SE14G20   29.61F
MEXICALI       SUNNY     90  30  12 SE6       29.64

$$

UPPER DESERT

CITY           SKY/WX    TMP DP  RH WIND       PRES   REMARKS
VICTORVILLE AP SUNNY     84  21  10 W14       29.77S
HESPERIA         N/A     77  42  29 W9        29.81R
PALMDALE       SUNNY     80  38  22 W17       29.77S
LANCASTER      SUNNY     78  28  16 W28G33    29.76S
EDWARDS AFB    MOSUNNY   83  29  13 W20       29.73S
DAGGETT        SUNNY     90  15   6 NW10      29.70S
29 PALMS N     SUNNY     88  19   8 CALM      29.76F
NEEDLES        SUNNY     94  15   5 SE10      29.63S

$$

REGIONAL REPORTS

CITY           SKY/WX    TMP DP  RH WIND       PRES   REMARKS
SANTA BARBARA  SUNNY     63  52  67 S5        29.78F
SANDBERG       SUNNY     67  36  31 N21       29.91F
MT. WILSON       N/A     68  43  40 N2          N/A
LAS VEGAS NV   MOSUNNY   87  16   7 S3        29.67S
PHOENIX AZ     MOSUNNY   91  14   6 W10       29.66S
TIJUANA        SUNNY     64  50  59 S12       29.84S

$$

OFFSHORE ISLANDS

CITY           SKY/WX    TMP DP  RH WIND       PRES   REMARKS
CATALINA ARPT  SUNNY     58  51  78 W8        29.83S
SAN NICOLAS IS SUNNY    N/A N/A N/A W21       29.80F

$$

MARINE AND OFFSHORE BUOY REPORTS

STATION/POSITION SKY/WX   TEMP    WIND        PRES    SWELL
                          AIR SEA DIR/SP/G            HT/PER/DIR
                          (F)     (DEG/KT/KT) (MB)    (FT/S/D)
S CLEMENTE BASIN           60 64  290/ 10/ 12 1009.7R   5/300/10
SAN NICOLAS IS.               59                N/A     5/310/11
SO. S. ROSA ISLA           57 57  310/ 16/ 19 1009.6F   7/10
W. S. BARBARA CH           55 55  310/ 17/ 19 1008.8F   7/310/10
S. MONICA BASIN            58 62  250/  8/  8 1009.1F   3/270/ 8
S PEDRO CHANNEL               61                N/A     2/270/11
DANA POINT                    62                N/A     2/190/15
CMP PENDLETON NS              61                N/A     2/220/15
OCEANSIDE OFFSHR              62                N/A     2/250/13
TORREY PINES OTR              62                N/A     2/220/14
LA JOLLA 1                 60 61  240/ 10/ 11 1009.8F
MISSION BAY BUOY              63                N/A     2/290/11
SAN DIEGO BAY                 66              1010.2S
POINT LOMA SOUTH              64                N/A     2/290/13

$$




USA.gov is the U.S. government's official web portal to all federal, state and local government web resources and services.